| time (UTC) | temp F | wind direction | speed knots | gust knots | rain 1hr in | rain 24hr in | rain mn in | humidity % | barometer mb |
| 20260510204425 | 61 | 4 | 2.6 | 5.2 | 0.00 | 0.00 | 0.00 | 33 | 1018.2 |
| 20260510203701 | 61 | 189 | 1.7 | 5.2 | 0.00 | 0.00 | 0.00 | 32 | 1018.2 |
| 20260510203432 | 61 | 28 | 4.3 | 5.2 | 0.00 | 0.00 | 0.00 | 33 | 1018.2 |
| 20260510202701 | 61 | 225 | 1.7 | 4.3 | 0.00 | 0.00 | 0.00 | 32 | 1018.2 |
| 20260510202200 | 61 | 356 | 2.6 | 5.2 | 0.00 | 0.00 | 0.00 | 32 | 1018.5 |
| 20260510201658 | 60 | 336 | 1.7 | 5.2 | 0.00 | 0.00 | 0.00 | 31 | 1018.5 |
| 20260510201425 | 60 | 348 | 1.7 | 5.2 | 0.00 | 0.00 | 0.00 | 31 | 1018.8 |
| 20260510200657 | 61 | 23 | 2.6 | 5.2 | 0.00 | 0.00 | 0.00 | 30 | 1018.8 |
| 20260510200157 | 61 | 315 | 1.7 | 4.3 | 0.00 | 0.00 | 0.00 | 30 | 1018.5 |
| 20260510195658 | 62 | 334 | 1.7 | 8.7 | 0.00 | 0.00 | 0.00 | 29 | 1018.5 |
| 20260510195157 | 62 | 286 | 3.5 | 9.6 | 0.00 | 0.00 | 0.00 | 30 | 1018.5 |
| 20260510194656 | 61 | 324 | 1.7 | 9.6 | 0.00 | 0.00 | 0.00 | 32 | 1018.5 |
| 20260510194155 | 61 | 33 | 2.6 | 8.7 | 0.00 | 0.00 | 0.00 | 36 | 1018.5 |
| 20260510193656 | 60 | 72 | 2.6 | 5.2 | 0.00 | 0.00 | 0.00 | 31 | 1018.5 |
| 20260510193155 | 60 | 7 | 1.7 | 5.2 | 0.00 | 0.00 | 0.00 | 33 | 1018.5 |
| 20260510192654 | 61 | 330 | 0.0 | 5.2 | 0.00 | 0.00 | 0.00 | 37 | 1018.5 |
| 20260510192153 | 61 | 37 | 4.3 | 11.3 | 0.00 | 0.00 | 0.00 | 34 | 1018.5 |
| 20260510191656 | 62 | 319 | 3.5 | 11.3 | 0.00 | 0.00 | 0.00 | 32 | 1018.5 |
| 20260510191153 | 62 | 281 | 2.6 | 7.0 | 0.00 | 0.00 | 0.00 | 30 | 1018.5 |
| 20260510190653 | 63 | 356 | 5.2 | 6.1 | 0.00 | 0.00 | 0.00 | 33 | 1018.5 |
| 20260510190411 | 62 | 256 | 1.7 | 6.1 | 0.00 | 0.00 | 0.00 | 33 | 1018.8 |
| 20260510185651 | 62 | 297 | 1.7 | 7.0 | 0.00 | 0.00 | 0.00 | 31 | 1018.5 |
| 20260510185149 | 62 | 313 | 2.6 | 9.6 | 0.00 | 0.00 | 0.00 | 33 | 1018.5 |
| 20260510184650 | 61 | 239 | 5.2 | 9.6 | 0.00 | 0.00 | 0.00 | 34 | 1018.8 |
| 20260510184418 | 60 | 12 | 3.5 | 6.1 | 0.00 | 0.00 | 0.00 | 33 | 1018.5 |
| 20260510183647 | 60 | 333 | 0.9 | 8.7 | 0.00 | 0.00 | 0.00 | 31 | 1018.5 |
| 20260510183147 | 60 | 331 | 2.6 | 8.7 | 0.00 | 0.00 | 0.00 | 31 | 1018.5 |
| 20260510183123 | 59 | 355 | 3.5 | 7.8 | 0.00 | 0.00 | 0.00 | 36 | 1018.5 |
| 20260510182146 | 60 | 348 | 2.6 | 7.8 | 0.00 | 0.00 | 0.00 | 31 | 1018.8 |
| 20260510181647 | 61 | 107 | 3.5 | 6.1 | 0.00 | 0.00 | 0.00 | 37 | 1018.5 |
| 20260510181146 | 60 | 22 | 3.5 | 7.8 | 0.00 | 0.00 | 0.00 | 34 | 1018.5 |
| 20260510180649 | 61 | 249 | 3.5 | 7.8 | 0.00 | 0.00 | 0.00 | 35 | 1018.5 |
| 20260510180410 | 60 | 211 | 2.6 | 7.8 | 0.00 | 0.00 | 0.00 | 34 | 1018.5 |
| 20260510175643 | 61 | 237 | 3.5 | 7.8 | 0.00 | 0.00 | 0.00 | 34 | 1018.8 |
| 20260510175145 | 60 | 81 | 2.6 | 6.1 | 0.00 | 0.00 | 0.00 | 36 | 1018.8 |
| 20260510174643 | 60 | 8 | 2.6 | 8.7 | 0.00 | 0.00 | 0.00 | 33 | 1018.8 |
| 20260510174143 | 60 | 279 | 3.5 | 8.7 | 0.00 | 0.00 | 0.00 | 33 | 1018.8 |
| 20260510173643 | 60 | 263 | 5.2 | 7.8 | 0.00 | 0.00 | 0.00 | 35 | 1018.8 |
| 20260510173141 | 60 | 208 | 3.5 | 5.2 | 0.00 | 0.00 | 0.00 | 33 | 1018.8 |
| 20260510172641 | 59 | 64 | 4.3 | 4.3 | 0.00 | 0.00 | 0.00 | 32 | 1018.8 |
| 20260510172140 | 59 | 86 | 3.5 | 6.1 | 0.00 | 0.00 | 0.00 | 35 | 1018.8 |
| 20260510171640 | 59 | 353 | 2.6 | 6.1 | 0.00 | 0.00 | 0.00 | 34 | 1018.8 |
| 20260510171138 | 59 | 286 | 0.0 | 6.1 | 0.00 | 0.00 | 0.00 | 35 | 1018.8 |
| 20260510170901 | 59 | 331 | 1.7 | 7.8 | 0.00 | 0.00 | 0.00 | 43 | 1018.8 |
| 20260510170139 | 59 | 95 | 1.7 | 7.8 | 0.00 | 0.00 | 0.00 | 35 | 1018.8 |
| 20260510165640 | 59 | 330 | 3.5 | 6.1 | 0.00 | 0.00 | 0.00 | 38 | 1018.8 |
| 20260510165137 | 59 | 9 | 1.7 | 7.0 | 0.00 | 0.00 | 0.00 | 35 | 1018.8 |
| 20260510164636 | 59 | 256 | 1.7 | 7.0 | 0.00 | 0.00 | 0.00 | 37 | 1018.8 |
| 20260510164135 | 59 | 275 | 1.7 | 5.2 | 0.00 | 0.00 | 0.00 | 33 | 1018.8 |
| 20260510163636 | 59 | 205 | 2.6 | 7.8 | 0.00 | 0.00 | 0.00 | 36 | 1018.8 |
| 20260510163135 | 58 | 223 | 3.5 | 7.8 | 0.00 | 0.00 | 0.00 | 38 | 1018.8 |
| 20260510162634 | 58 | 348 | 0.9 | 6.1 | 0.00 | 0.00 | 0.00 | 43 | 1018.8 |
| 20260510162134 | 57 | 345 | 1.7 | 5.2 | 0.00 | 0.00 | 0.00 | 38 | 1018.5 |
| 20260510161633 | 58 | 63 | 1.7 | 5.2 | 0.00 | 0.00 | 0.00 | 36 | 1018.5 |
| 20260510161135 | 58 | 46 | 1.7 | 8.7 | 0.00 | 0.00 | 0.00 | 36 | 1018.5 |
| 20260510160632 | 58 | 5 | 4.3 | 8.7 | 0.00 | 0.00 | 0.00 | 33 | 1018.5 |
| 20260510160132 | 58 | 25 | 1.7 | 7.8 | 0.00 | 0.00 | 0.00 | 38 | 1018.5 |
| 20260510155631 | 58 | 317 | 0.9 | 7.8 | 0.00 | 0.00 | 0.00 | 37 | 1018.5 |
| 20260510155131 | 58 | 233 | 5.2 | 7.8 | 0.00 | 0.00 | 0.00 | 37 | 1018.5 |
| 20260510154630 | 57 | 359 | 5.2 | 7.0 | 0.00 | 0.00 | 0.00 | 36 | 1018.2 |
| 20260510154129 | 57 | 34 | 0.9 | 4.3 | 0.00 | 0.00 | 0.00 | 38 | 1018.2 |
| 20260510153628 | 57 | 13 | 3.5 | 5.2 | 0.00 | 0.00 | 0.00 | 39 | 1018.5 |
| 20260510153131 | 57 | 330 | 1.7 | 5.2 | 0.00 | 0.00 | 0.00 | 39 | 1018.5 |
| 20260510152627 | 57 | 236 | 3.5 | 3.5 | 0.00 | 0.00 | 0.00 | 40 | 1018.5 |
| 20260510152129 | 57 | 297 | 0.9 | 3.5 | 0.00 | 0.00 | 0.00 | 40 | 1018.5 |
| 20260510151627 | 57 | 212 | 3.5 | 3.5 | 0.00 | 0.00 | 0.00 | 38 | 1018.2 |
| 20260510151126 | 57 | 323 | 0.0 | 6.1 | 0.00 | 0.00 | 0.00 | 39 | 1018.2 |
| 20260510150627 | 57 | 213 | 0.9 | 6.1 | 0.00 | 0.00 | 0.00 | 41 | 1018.2 |
| 20260510150125 | 56 | 98 | 2.6 | 4.3 | 0.00 | 0.00 | 0.00 | 45 | 1018.2 |
| 20260510145625 | 56 | 128 | 3.5 | 5.2 | 0.00 | 0.00 | 0.00 | 41 | 1018.2 |
| 20260510145131 | 55 | 13 | 2.6 | 7.0 | 0.00 | 0.00 | 0.00 | 41 | 1018.2 |
| 20260510145124 | 55 | 156 | 1.7 | 5.2 | 0.00 | 0.00 | 0.00 | 44 | 1018.2 |
| 20260510144343 | 54 | 152 | 2.6 | 7.0 | 0.00 | 0.00 | 0.00 | 43 | 1018.2 |
| 20260510143623 | 54 | 167 | 3.5 | 4.3 | 0.00 | 0.00 | 0.00 | 41 | 1018.2 |
| 20260510143124 | 54 | 137 | 0.9 | 7.0 | 0.00 | 0.00 | 0.00 | 43 | 1018.2 |
| 20260510142622 | 54 | 122 | 5.2 | 7.0 | 0.00 | 0.00 | 0.00 | 42 | 1018.5 |
| 20260510142123 | 54 | 49 | 3.5 | 5.2 | 0.00 | 0.00 | 0.00 | 44 | 1018.2 |
| 20260510141619 | 54 | 75 | 3.5 | 5.2 | 0.00 | 0.00 | 0.00 | 42 | 1018.2 |
| 20260510141120 | 53 | 355 | 2.6 | 5.2 | 0.00 | 0.00 | 0.00 | 41 | 1018.2 |
| 20260510140633 | 53 | 132 | 4.3 | 5.2 | 0.00 | 0.00 | 0.00 | 45 | 1018.2 |
| 20260510140120 | 53 | 118 | 1.7 | 7.0 | 0.00 | 0.00 | 0.00 | 40 | 1018.2 |
| 20260510135619 | 52 | 65 | 1.7 | 7.0 | 0.00 | 0.00 | 0.00 | 43 | 1018.2 |
| 20260510135124 | 52 | 123 | 4.3 | 7.0 | 0.00 | 0.00 | 0.00 | 40 | 1018.2 |
| 20260510134618 | 52 | 119 | 1.7 | 8.7 | 0.00 | 0.00 | 0.00 | 41 | 1017.8 |
| 20260510134117 | 52 | 118 | 4.3 | 8.7 | 0.00 | 0.00 | 0.00 | 41 | 1017.8 |
| 20260510133616 | 52 | 128 | 6.1 | 8.7 | 0.00 | 0.00 | 0.00 | 42 | 1017.8 |
| 20260510133347 | 51 | 117 | 4.3 | 7.0 | 0.00 | 0.00 | 0.00 | 43 | 1017.8 |
| 20260510132614 | 51 | 86 | 5.2 | 6.1 | 0.00 | 0.00 | 0.00 | 46 | 1017.8 |
| 20260510132117 | 51 | 73 | 4.3 | 7.8 | 0.00 | 0.00 | 0.00 | 47 | 1017.5 |
| 20260510131614 | 51 | 82 | 6.1 | 7.8 | 0.00 | 0.00 | 0.00 | 50 | 1017.5 |
| 20260510131115 | 51 | 114 | 4.3 | 8.7 | 0.00 | 0.00 | 0.00 | 52 | 1017.8 |
| 20260510130833 | 50 | 141 | 3.5 | 8.7 | 0.00 | 0.00 | 0.00 | 50 | 1017.5 |
| 20260510130113 | 50 | 93 | 4.3 | 9.6 | 0.00 | 0.00 | 0.00 | 49 | 1017.5 |
| 20260510125613 | 50 | 119 | 6.1 | 9.6 | 0.00 | 0.00 | 0.00 | 50 | 1017.5 |
| 20260510125111 | 50 | 118 | 2.6 | 7.0 | 0.00 | 0.00 | 0.00 | 49 | 1017.5 |
| 20260510124610 | 49 | 106 | 3.5 | 5.2 | 0.00 | 0.00 | 0.00 | 53 | 1017.1 |
| 20260510124335 | 49 | 112 | 3.5 | 5.2 | 0.00 | 0.00 | 0.00 | 55 | 1017.1 |
| 20260510123826 | 48 | 80 | 4.3 | 5.2 | 0.00 | 0.00 | 0.00 | 59 | 1017.1 |
| 20260510123337 | 48 | 102 | 1.7 | 5.2 | 0.00 | 0.00 | 0.00 | 59 | 1017.1 |
| 20260510122608 | 47 | 71 | 2.6 | 5.2 | 0.00 | 0.00 | 0.00 | 61 | 1016.7 |
| 20260510122108 | 47 | 79 | 2.6 | 5.2 | 0.00 | 0.00 | 0.00 | 65 | 1016.7 |
| 20260510121607 | 46 | 88 | 2.6 | 5.2 | 0.00 | 0.00 | 0.00 | 66 | 1016.7 |
| 20260510121109 | 46 | 75 | 2.6 | 3.5 | 0.00 | 0.00 | 0.00 | 70 | 1016.7 |
| 20260510120607 | 44 | 100 | 2.6 | 3.5 | 0.00 | 0.00 | 0.00 | 72 | 1016.7 |
| 20260510120107 | 44 | 16 | 1.7 | 4.3 | 0.00 | 0.00 | 0.00 | 72 | 1016.7 |
| 20260510115605 | 43 | 76 | 2.6 | 4.3 | 0.00 | 0.00 | 0.00 | 72 | 1016.7 |
| 20260510115104 | 42 | 55 | 1.7 | 3.5 | 0.00 | 0.00 | 0.00 | 79 | 1016.4 |
| 20260510114604 | 40 | 46 | 1.7 | 3.5 | 0.00 | 0.00 | 0.00 | 78 | 1016.7 |
| 20260510114103 | 40 | 11 | 2.6 | 3.5 | 0.00 | 0.00 | 0.00 | 81 | 1016.4 |
| 20260510113830 | 39 | 60 | 0.9 | 1.7 | 0.00 | 0.00 | 0.00 | 82 | 1016.0 |
| 20260510113322 | 39 | 15 | 0.9 | 1.7 | 0.00 | 0.00 | 0.00 | 82 | 1016.4 |
| 20260510112603 | 39 | 103 | 0.0 | 1.7 | 0.00 | 0.00 | 0.00 | 83 | 1016.4 |
| 20260510112101 | 38 | 33 | 0.9 | 1.7 | 0.00 | 0.00 | 0.00 | 83 | 1016.4 |
| 20260510111601 | 38 | 58 | 0.0 | 2.6 | 0.00 | 0.00 | 0.00 | 81 | 1016.0 |
| 20260510111101 | 38 | 358 | 1.7 | 2.6 | 0.00 | 0.00 | 0.00 | 81 | 1016.4 |
| 20260510110822 | 38 | 55 | 0.0 | 1.7 | 0.00 | 0.00 | 0.00 | 82 | 1016.0 |
| 20260510110112 | 38 | 22 | 0.0 | 1.7 | 0.00 | 0.00 | 0.00 | 81 | 1016.0 |
| 20260510105559 | 38 | 354 | 1.7 | 1.7 | 0.00 | 0.00 | 0.00 | 82 | 1016.0 |
| 20260510105057 | 38 | 126 | 0.9 | 1.7 | 0.00 | 0.00 | 0.00 | 82 | 1015.7 |
| 20260510104824 | 38 | 3 | 0.0 | 1.7 | 0.00 | 0.00 | 0.00 | 81 | 1015.7 |
| 20260510104056 | 38 | 25 | 0.0 | 1.7 | 0.00 | 0.00 | 0.00 | 81 | 1015.4 |
| 20260510103556 | 38 | 2 | 1.7 | 1.7 | 0.00 | 0.00 | 0.00 | 80 | 1015.4 |
| 20260510103057 | 38 | 26 | 0.9 | 1.7 | 0.00 | 0.00 | 0.00 | 80 | 1015.4 |
| 20260510102818 | 38 | 12 | 0.9 | 1.7 | 0.00 | 0.00 | 0.00 | 80 | 1015.4 |
| 20260510102054 | 39 | 353 | 0.0 | 2.6 | 0.00 | 0.00 | 0.00 | 80 | 1015.4 |
| 20260510101822 | 39 | 45 | 0.9 | 2.6 | 0.00 | 0.00 | 0.00 | 80 | 1015.4 |
| 20260510101056 | 39 | 132 | 1.7 | 1.7 | 0.00 | 0.00 | 0.00 | 79 | 1015.4 |
| 20260510100555 | 39 | 8 | 1.7 | 1.7 | 0.00 | 0.00 | 0.00 | 79 | 1015.4 |
| 20260510100334 | 39 | 54 | 0.0 | 1.7 | 0.00 | 0.00 | 0.00 | 79 | 1015.4 |
| 20260510095554 | 39 | 55 | 0.0 | 1.7 | 0.00 | 0.00 | 0.00 | 79 | 1015.0 |
| 20260510095053 | 39 | 73 | 0.9 | 1.7 | 0.00 | 0.00 | 0.00 | 78 | 1015.0 |
| 20260510094553 | 39 | 4 | 0.9 | 2.6 | 0.00 | 0.00 | 0.00 | 77 | 1015.0 |
| 20260510094051 | 40 | 336 | 0.0 | 2.6 | 0.00 | 0.00 | 0.00 | 76 | 1015.0 |
| 20260510093552 | 40 | 348 | 1.7 | 2.6 | 0.00 | 0.00 | 0.00 | 76 | 1014.7 |
| 20260510093531 | 40 | 29 | 0.9 | 2.6 | 0.00 | 0.00 | 0.00 | 76 | 1015.0 |
| 20260510092549 | 40 | 341 | 2.6 | 2.6 | 0.00 | 0.00 | 0.00 | 75 | 1014.7 |
| 20260510092048 | 41 | 118 | 2.6 | 2.6 | 0.00 | 0.00 | 0.00 | 74 | 1015.4 |
| 20260510091549 | 41 | 6 | 1.7 | 1.7 | 0.00 | 0.00 | 0.00 | 73 | 1015.0 |
| 20260510091047 | 41 | 22 | 0.9 | 0.9 | 0.00 | 0.00 | 0.00 | 73 | 1015.0 |
| 20260510090548 | 42 | 66 | 0.0 | 1.7 | 0.00 | 0.00 | 0.00 | 72 | 1015.0 |
| 20260510090046 | 42 | 28 | 0.9 | 2.6 | 0.00 | 0.00 | 0.00 | 70 | 1015.0 |
| 20260510085546 | 42 | 60 | 1.7 | 2.6 | 0.00 | 0.00 | 0.00 | 70 | 1015.0 |
| 20260510085045 | 42 | 104 | 1.7 | 2.6 | 0.00 | 0.00 | 0.00 | 69 | 1015.0 |
| 20260510084547 | 42 | 45 | 1.7 | 2.6 | 0.00 | 0.00 | 0.00 | 71 | 1014.7 |
| 20260510084045 | 43 | 93 | 0.9 | 1.7 | 0.00 | 0.00 | 0.00 | 69 | 1014.7 |
| 20260510083543 | 43 | 55 | 0.0 | 3.5 | 0.00 | 0.00 | 0.00 | 68 | 1014.7 |
| 20260510083531 | 44 | 352 | 1.7 | 3.5 | 0.00 | 0.00 | 0.00 | 66 | 1014.7 |
| 20260510082543 | 44 | 116 | 1.7 | 2.6 | 0.00 | 0.00 | 0.00 | 65 | 1014.3 |
| 20260510082044 | 45 | 13 | 0.9 | 4.3 | 0.00 | 0.00 | 0.00 | 63 | 1014.7 |
| 20260510081545 | 45 | 50 | 1.7 | 4.3 | 0.00 | 0.00 | 0.00 | 61 | 1014.3 |
| 20260510081041 | 46 | 66 | 2.6 | 4.3 | 0.00 | 0.00 | 0.00 | 60 | 1014.3 |
| 20260510080542 | 46 | 87 | 1.7 | 5.2 | 0.00 | 0.00 | 0.00 | 59 | 1014.3 |
| 20260510080040 | 46 | 71 | 3.5 | 6.1 | 0.00 | 0.00 | 0.00 | 59 | 1014.3 |
| 20260510075759 | 46 | 64 | 3.5 | 6.1 | 0.00 | 0.00 | 0.00 | 58 | 1014.0 |
| 20260510075039 | 46 | 76 | 4.3 | 7.8 | 0.00 | 0.00 | 0.00 | 58 | 1014.0 |
| 20260510074539 | 47 | 79 | 4.3 | 7.8 | 0.00 | 0.00 | 0.00 | 57 | 1014.0 |
| 20260510074256 | 47 | 82 | 7.0 | 11.3 | 0.00 | 0.00 | 0.00 | 57 | 1014.0 |
| 20260510073538 | 47 | 75 | 5.2 | 11.3 | 0.00 | 0.00 | 0.00 | 57 | 1013.7 |
| 20260510073037 | 47 | 77 | 4.3 | 9.6 | 0.00 | 0.00 | 0.00 | 57 | 1013.7 |
| 20260510072536 | 47 | 78 | 6.1 | 8.7 | 0.00 | 0.00 | 0.00 | 56 | 1013.7 |
| 20260510072259 | 48 | 75 | 6.1 | 7.8 | 0.00 | 0.00 | 0.00 | 57 | 1013.7 |
| 20260510071535 | 48 | 74 | 5.2 | 9.6 | 0.00 | 0.00 | 0.00 | 56 | 1013.7 |
| 20260510071036 | 48 | 95 | 5.2 | 9.6 | 0.00 | 0.00 | 0.00 | 56 | 1013.7 |
| 20260510070535 | 48 | 57 | 5.2 | 9.6 | 0.00 | 0.00 | 0.00 | 56 | 1013.3 |
| 20260510070034 | 48 | 86 | 4.3 | 10.4 | 0.00 | 0.00 | 0.00 | 57 | 1013.3 |
| 20260510065535 | 48 | 75 | 3.5 | 10.4 | 0.00 | 0.00 | 0.00 | 58 | 1013.3 |
| 20260510065035 | 48 | 64 | 3.5 | 6.1 | 0.00 | 0.00 | 0.00 | 60 | 1012.9 |
| 20260510064533 | 47 | 20 | 2.6 | 5.2 | 0.00 | 0.00 | 0.00 | 62 | 1012.9 |
| 20260510064031 | 46 | 42 | 2.6 | 5.2 | 0.00 | 0.00 | 0.00 | 65 | 1012.9 |
| 20260510063531 | 45 | 38 | 2.6 | 2.6 | 0.00 | 0.00 | 0.00 | 71 | 1012.9 |
| 20260510063033 | 44 | 30 | 2.6 | 2.6 | 0.00 | 0.00 | 0.00 | 74 | 1012.9 |
| 20260510062532 | 44 | 17 | 0.9 | 1.7 | 0.00 | 0.00 | 0.00 | 73 | 1012.5 |
| 20260510062031 | 45 | 8 | 0.9 | 1.7 | 0.00 | 0.00 | 0.00 | 73 | 1012.5 |
| 20260510061530 | 45 | 32 | 0.0 | 0.9 | 0.00 | 0.00 | 0.00 | 73 | 1012.5 |
| 20260510061030 | 45 | 52 | 0.0 | 0.9 | 0.00 | 0.00 | 0.00 | 73 | 1012.5 |
| 20260510061012 | 46 | 49 | 0.0 | 0.9 | 0.00 | 0.00 | 0.00 | 72 | 1012.5 |
| 20260510060512 | 46 | 66 | 0.0 | 0.9 | 0.00 | 0.00 | 0.00 | 69 | 1012.5 |
| 20260510055528 | 46 | 146 | 0.0 | 0.9 | 0.00 | 0.00 | 0.00 | 69 | 1012.2 |
| 20260510055027 | 47 | 63 | 0.0 | 0.9 | 0.00 | 0.00 | 0.00 | 70 | 1012.2 |
| 20260510054529 | 47 | 41 | 0.0 | 0.9 | 0.00 | 0.00 | 0.00 | 68 | 1012.2 |
| 20260510054028 | 47 | 36 | 0.9 | 1.7 | 0.00 | 0.00 | 0.00 | 68 | 1012.2 |
| 20260510053524 | 48 | 51 | 0.0 | 1.7 | 0.00 | 0.00 | 0.00 | 67 | 1011.9 |
| 20260510053024 | 48 | 45 | 0.0 | 0.9 | 0.00 | 0.00 | 0.00 | 66 | 1011.9 |
| 20260510052525 | 48 | 89 | 0.0 | 0.9 | 0.00 | 0.00 | 0.00 | 67 | 1011.9 |
| 20260510052508 | 49 | 74 | 0.0 | 0.9 | 0.00 | 0.00 | 0.00 | 64 | 1011.9 |
| 20260510051522 | 49 | 132 | 0.0 | 0.9 | 0.00 | 0.00 | 0.00 | 65 | 1011.5 |
| 20260510051022 | 49 | 55 | 0.0 | 0.9 | 0.00 | 0.00 | 0.00 | 62 | 1011.9 |
| 20260510050522 | 49 | 25 | 0.0 | 0.9 | 0.00 | 0.00 | 0.00 | 63 | 1011.9 |
| 20260510050024 | 49 | 60 | 0.0 | 2.6 | 0.00 | 0.00 | 0.00 | 62 | 1011.5 |
| 20260510045522 | 50 | 36 | 0.0 | 2.6 | 0.00 | 0.00 | 0.00 | 64 | 1011.5 |
| 20260510045246 | 50 | 48 | 0.0 | 2.6 | 0.00 | 0.00 | 0.00 | 64 | 1011.5 |
| 20260510044526 | 50 | 47 | 0.0 | 1.7 | 0.00 | 0.00 | 0.00 | 65 | 1011.2 |
| 20260510044519 | 50 | 66 | 0.0 | 2.6 | 0.00 | 0.00 | 0.00 | 64 | 1011.2 |
| 20260510043520 | 50 | 42 | 1.7 | 2.6 | 0.00 | 0.00 | 0.00 | 65 | 1011.2 |
| 20260510043243 | 50 | 69 | 0.0 | 2.6 | 0.00 | 0.00 | 0.00 | 65 | 1011.2 |
| 20260510042519 | 50 | 62 | 1.7 | 1.7 | 0.00 | 0.00 | 0.00 | 65 | 1011.2 |
| 20260510042019 | 50 | 31 | 0.9 | 0.9 | 0.00 | 0.00 | 0.00 | 65 | 1010.9 |
| 20260510041516 | 51 | 44 | 0.0 | 0.9 | 0.00 | 0.00 | 0.00 | 65 | 1010.9 |
| 20260510041019 | 51 | 49 | 0.0 | 1.7 | 0.00 | 0.00 | 0.00 | 63 | 1010.9 |
| 20260510040517 | 51 | 34 | 0.9 | 1.7 | 0.00 | 0.00 | 0.00 | 62 | 1010.9 |
| 20260510040240 | 51 | 147 | 0.0 | 0.9 | 0.00 | 0.00 | 0.00 | 63 | 1010.5 |
| 20260510035513 | 51 | 38 | 0.0 | 0.9 | 0.00 | 0.00 | 0.00 | 64 | 1010.5 |
| 20260510035013 | 51 | 44 | 0.0 | 0.9 | 0.00 | 0.00 | 0.00 | 64 | 1010.5 |
| 20260510034513 | 51 | 22 | 0.0 | 0.9 | 0.00 | 0.00 | 0.00 | 64 | 1010.5 |
| 20260510034238 | 51 | 341 | 0.0 | 0.9 | 0.00 | 0.00 | 0.00 | 68 | 1010.5 |
| 20260510033511 | 51 | 13 | 0.0 | 0.9 | 0.00 | 0.00 | 0.00 | 65 | 1010.5 |
| 20260510033011 | 52 | 32 | 0.0 | 1.7 | 0.00 | 0.00 | 0.00 | 64 | 1010.2 |
| 20260510032511 | 52 | 135 | 0.0 | 1.7 | 0.00 | 0.00 | 0.00 | 62 | 1010.2 |
| 20260510032239 | 52 | 22 | 0.0 | 1.7 | 0.00 | 0.00 | 0.00 | 63 | 1010.2 |
| 20260510031511 | 52 | 32 | 0.0 | 1.7 | 0.00 | 0.00 | 0.00 | 64 | 1009.8 |
| 20260510031010 | 52 | 32 | 0.0 | 1.7 | 0.00 | 0.00 | 0.00 | 62 | 1009.8 |
| 20260510030730 | 53 | 354 | 0.0 | 0.9 | 0.00 | 0.00 | 0.00 | 62 | 1009.8 |
| 20260510030010 | 53 | 44 | 0.0 | 0.9 | 0.00 | 0.00 | 0.00 | 62 | 1009.8 |
| 20260510025508 | 53 | 85 | 0.9 | 0.9 | 0.00 | 0.00 | 0.00 | 63 | 1009.8 |
| 20260510025007 | 53 | 32 | 0.0 | 0.9 | 0.00 | 0.00 | 0.00 | 60 | 1009.8 |
| 20260510024508 | 54 | 135 | 0.0 | 0.9 | 0.00 | 0.00 | 0.00 | 59 | 1009.8 |
| 20260510024008 | 54 | 150 | 0.0 | 1.7 | 0.00 | 0.00 | 0.00 | 57 | 1009.4 |
| 20260510023723 | 55 | 17 | 0.0 | 1.7 | 0.00 | 0.00 | 0.00 | 57 | 1009.1 |
| 20260510023223 | 55 | 61 | 0.9 | 1.7 | 0.00 | 0.00 | 0.00 | 56 | 1009.4 |
| 20260510022505 | 55 | 195 | 0.0 | 1.7 | 0.00 | 0.00 | 0.00 | 56 | 1009.1 |
| 20260510022005 | 56 | 186 | 0.0 | 1.7 | 0.00 | 0.00 | 0.00 | 57 | 1009.1 |
| 20260510021508 | 57 | 216 | 0.0 | 5.2 | 0.00 | 0.00 | 0.00 | 56 | 1009.1 |
| 20260510021002 | 57 | 256 | 0.9 | 5.2 | 0.00 | 0.00 | 0.00 | 54 | 1009.1 |
| 20260510020502 | 57 | 68 | 0.9 | 1.7 | 0.00 | 0.00 | 0.00 | 54 | 1008.7 |
| 20260510020003 | 58 | 60 | 0.0 | 1.7 | 0.00 | 0.00 | 0.00 | 54 | 1008.7 |
| 20260510015503 | 58 | 40 | 0.0 | 2.6 | 0.00 | 0.00 | 0.00 | 50 | 1008.4 |
| 20260510015000 | 59 | 235 | 0.0 | 2.6 | 0.00 | 0.00 | 0.00 | 49 | 1008.4 |
| 20260510014725 | 59 | 18 | 1.7 | 2.6 | 0.00 | 0.00 | 0.00 | 47 | 1008.0 |
| 20260510014001 | 60 | 0 | 0.0 | 2.6 | 0.00 | 0.00 | 0.00 | 45 | 1008.0 |
| 20260510013500 | 60 | 39 | 0.9 | 2.6 | 0.00 | 0.00 | 0.00 | 46 | 1007.7 |
| 20260510012959 | 60 | 84 | 1.7 | 2.6 | 0.00 | 0.00 | 0.00 | 44 | 1008.0 |
| 20260510012459 | 61 | 23 | 1.7 | 2.6 | 0.00 | 0.00 | 0.00 | 40 | 1007.7 |
| 20260510011957 | 62 | 325 | 1.7 | 3.5 | 0.00 | 0.00 | 0.00 | 40 | 1007.7 |
| 20260510011457 | 62 | 314 | 1.7 | 3.5 | 0.00 | 0.00 | 0.00 | 38 | 1007.4 |
| 20260510010957 | 62 | 276 | 0.9 | 2.6 | 0.00 | 0.00 | 0.00 | 38 | 1007.4 |
| 20260510010457 | 63 | 177 | 0.0 | 3.5 | 0.00 | 0.00 | 0.00 | 38 | 1007.4 |
| 20260510005956 | 63 | 326 | 0.0 | 5.2 | 0.00 | 0.00 | 0.00 | 38 | 1007.0 |
| 20260510005736 | 63 | 133 | 1.7 | 5.2 | 0.00 | 0.00 | 0.00 | 38 | 1007.0 |
| 20260510004958 | 63 | 14 | 0.0 | 3.5 | 0.00 | 0.00 | 0.00 | 39 | 1007.0 |
| 20260510004453 | 64 | 333 | 1.7 | 3.5 | 0.00 | 0.00 | 0.00 | 38 | 1006.7 |
| 20260510004212 | 64 | 22 | 0.9 | 3.5 | 0.00 | 0.00 | 0.00 | 38 | 1006.7 |
| 20260510003719 | 64 | 168 | 1.7 | 3.5 | 0.00 | 0.00 | 0.00 | 37 | 1006.7 |
| 20260510002952 | 65 | 337 | 0.9 | 3.5 | 0.00 | 0.00 | 0.00 | 37 | 1006.7 |
| 20260510002712 | 65 | 340 | 1.7 | 5.2 | 0.00 | 0.00 | 0.00 | 36 | 1006.3 |
| 20260510001954 | 66 | 325 | 2.6 | 7.8 | 0.00 | 0.00 | 0.00 | 35 | 1006.3 |
| 20260510001450 | 66 | 217 | 1.7 | 7.8 | 0.00 | 0.00 | 0.00 | 36 | 1006.3 |
| 20260510000951 | 66 | 41 | 1.7 | 7.0 | 0.00 | 0.00 | 0.00 | 37 | 1006.3 |
| 20260510000714 | 67 | 232 | 3.5 | 7.0 | 0.00 | 0.00 | 0.00 | 37 | 1006.0 |
| 20260509235950 | 67 | 305 | 3.5 | 7.8 | 0.00 | 0.00 | 0.00 | 37 | 1006.0 |
| 20260509235449 | 67 | 286 | 3.5 | 4.3 | 0.00 | 0.00 | 0.00 | 37 | 1006.0 |
| 20260509234948 | 68 | 281 | 1.7 | 5.2 | 0.00 | 0.00 | 0.00 | 38 | 1005.6 |
| 20260509234448 | 68 | 355 | 0.9 | 5.2 | 0.00 | 0.00 | 0.00 | 37 | 1005.6 |
| 20260509233950 | 68 | 311 | 2.6 | 7.0 | 0.00 | 0.00 | 0.00 | 36 | 1005.6 |
| 20260509233446 | 69 | 342 | 1.7 | 7.0 | 0.00 | 0.00 | 0.00 | 36 | 1005.2 |
| 20260509232947 | 69 | 334 | 3.5 | 7.0 | 0.00 | 0.00 | 0.00 | 35 | 1005.2 |
| 20260509232446 | 69 | 290 | 2.6 | 9.6 | 0.00 | 0.00 | 0.00 | 33 | 1005.2 |
| 20260509231948 | 69 | 335 | 3.5 | 9.6 | 0.00 | 0.00 | 0.00 | 35 | 1005.2 |
| 20260509231444 | 69 | 266 | 2.6 | 7.8 | 0.00 | 0.00 | 0.00 | 35 | 1005.2 |
| 20260509230945 | 69 | 301 | 2.6 | 5.2 | 0.00 | 0.00 | 0.00 | 36 | 1005.2 |
| 20260509230455 | 69 | 299 | 4.3 | 6.1 | 0.00 | 0.00 | 0.00 | 35 | 1004.9 |
| 20260509225942 | 69 | 329 | 2.6 | 7.8 | 0.00 | 0.00 | 0.00 | 37 | 1004.9 |
| 20260509225442 | 69 | 260 | 2.6 | 8.7 | 0.00 | 0.00 | 0.00 | 36 | 1004.9 |
| 20260509225210 | 70 | 242 | 1.7 | 8.7 | 0.00 | 0.00 | 0.00 | 36 | 1004.9 |
| 20260509224440 | 70 | 53 | 1.7 | 7.0 | 0.00 | 0.00 | 0.00 | 38 | 1004.9 |
| 20260509224211 | 70 | 265 | 0.9 | 9.6 | 0.00 | 0.00 | 0.00 | 38 | 1004.9 |
| 20260509223440 | 70 | 326 | 3.5 | 9.6 | 0.00 | 0.00 | 0.00 | 35 | 1004.6 |
| 20260509222940 | 70 | 264 | 5.2 | 7.0 | 0.00 | 0.00 | 0.00 | 37 | 1004.6 |
| 20260509222442 | 70 | 345 | 1.7 | 10.4 | 0.00 | 0.00 | 0.00 | 36 | 1004.6 |
| 20260509221938 | 70 | 321 | 4.3 | 10.4 | 0.00 | 0.00 | 0.00 | 36 | 1004.6 |
| 20260509221439 | 70 | 279 | 2.6 | 8.7 | 0.00 | 0.00 | 0.00 | 35 | 1004.6 |
| 20260509220940 | 70 | 333 | 4.3 | 8.7 | 0.00 | 0.00 | 0.00 | 36 | 1004.6 |
| 20260509220437 | 71 | 310 | 5.2 | 7.8 | 0.00 | 0.00 | 0.00 | 35 | 1004.6 |
| 20260509215936 | 71 | 328 | 2.6 | 8.7 | 0.00 | 0.00 | 0.00 | 36 | 1004.6 |
| 20260509215437 | 71 | 48 | 6.1 | 8.7 | 0.00 | 0.00 | 0.00 | 37 | 1004.2 |
| 20260509215204 | 71 | 235 | 6.1 | 8.7 | 0.00 | 0.00 | 0.00 | 35 | 1004.2 |
| 20260509214435 | 71 | 343 | 3.5 | 8.7 | 0.00 | 0.00 | 0.00 | 33 | 1004.2 |
| 20260509213936 | 72 | 228 | 2.6 | 8.7 | 0.00 | 0.00 | 0.00 | 35 | 1004.2 |
| 20260509213435 | 71 | 331 | 1.7 | 8.7 | 0.00 | 0.00 | 0.00 | 34 | 1003.9 |
| 20260509212933 | 71 | 266 | 3.5 | 13.0 | 0.00 | 0.00 | 0.00 | 36 | 1003.9 |
| 20260509212434 | 71 | 244 | 4.3 | 13.0 | 0.00 | 0.00 | 0.00 | 34 | 1004.2 |
| 20260509211933 | 72 | 304 | 3.5 | 11.3 | 0.00 | 0.00 | 0.00 | 33 | 1003.9 |
| 20260509211919 | 72 | 248 | 3.5 | 11.3 | 0.00 | 0.00 | 0.00 | 31 | 1003.9 |
| 20260509210932 | 72 | 269 | 1.7 | 13.0 | 0.00 | 0.00 | 0.00 | 30 | 1003.9 |
| 20260509210430 | 72 | 306 | 3.5 | 13.0 | 0.00 | 0.00 | 0.00 | 32 | 1003.9 |
| 20260509205931 | 72 | 264 | 6.1 | 11.3 | 0.00 | 0.00 | 0.00 | 33 | 1003.5 |
| 20260509205431 | 73 | 317 | 6.1 | 8.7 | 0.00 | 0.00 | 0.00 | 32 | 1003.5 |
| 20260509204928 | 72 | 318 | 3.5 | 10.4 | 0.00 | 0.00 | 0.00 | 34 | 1003.5 |
| 20260509204649 | 72 | 359 | 2.6 | 10.4 | 0.00 | 0.00 | 0.00 | 31 | 1003.5 |